Temperature
14 13 12 12 11 11 11 10 10 10 10 10 9 9 9 9 9 8 8 8 8 8 8 9 9 8 9 10 10 10 11 11 12 12 13 13 12 13 13 14 14 14 14
13 13 12 12 11 11 11 10 10 10 10 10 9 9 9 9 9 8 8 8 8 8 8 8 8 9 9 9 9 10 10 10 11 11 12 12 12 12 13 13 14 14 14
14 13 12 12 11 11 10 10 10 10 10 10 9 9 9 9 9 9 8 8 8 8 8 8 8 8 8 9 9 9 10 10 10 11 11 12 12 12 12 13 13 14 14
14 13 12 12 11 11 10 10 10 10 10 9 9 9 9 9 9 9 8 8 8 8 8 8 8 8 8 8 8 8 9 9 10 10 11 11 12 12 12 12 13 13 13
14 13 12 12 11 11 10 10 10 10 10 9 9 9 9 9 9 9 8 8 8 8 8 8 8 8 8 8 8 9 9 9 10 10 11 11 12 12 12 12 13 13 13
13 13 12 12 11 11 10 10 10 10 9 9 9 9 9 9 9 9 8 8 8 8 8 8 8 8 8 8 8 8 8 8 9 9 10 11 11 12 12 12 12 12 12
13 13 12 12 11 11 10 10 10 10 9 9 9 9 9 9 9 9 9 8 8 8 8 8 8 8 8 7 7 7 8 8 8 8 9 10 10 11 11 11 12 12 12
13 13 12 12 11 11 10 10 10 9 9 9 9 9 9 9 9 9 8 8 8 8 8 8 8 8 8 7 7 7 7 7 7 8 7 8 9 9 10 10 11 11 12
14 13 12 12 11 11 10 10 10 9 9 9 9 9 9 9 9 9 8 8 8 8 8 8 8 7 7 7 7 7 7 7 7 8 8 8 8 9 9 9 10 11 11
14 13 12 12 11 11 10 10 10 9 9 9 9 9 9 9 9 9 8 8 8 8 8 8 8 8 7 7 7 6 7 7 7 8 8 8 8 8 9 9 9 11 11
14 13 12 12 11 11 10 10 10 9 9 9 9 9 9 9 9 9 8 8 8 8 8 8 8 8 7 7 7 6 6 7 7 7 7 8 8 8 8 9 9 10 11
14 13 13 12 11 11 10 10 9 9 9 9 9 9 9 9 9 9 8 8 8 7 7 8 8 7 7 7 7 7 7 6 6 6 7 8 8 9 9 9 9 10 10
14 14 13 12 11 11 10 10 9 9 9 9 9 9 10 9 9 8 8 8 8 8 7 7 7 7 7 7 7 7 6 6 6 6 7 8 8 9 9 9 9 9 10
14 14 13 12 12 11 10 10 10 10 10 9 9 9 9 9 9 8 8 8 7 7 7 7 7 7 7 7 6 6 6 6 6 7 7 8 8 8 9 9 9 9 10
14 14 13 12 11 11 10 10 10 10 9 9 9 9 9 9 9 8 8 8 7 7 7 7 7 7 7 7 7 7 7 6 6 7 7 7 8 8 8 9 9 9 9
14 13 13 12 12 11 11 11 10 10 10 9 9 9 9 9 9 8 8 8 7 7 7 7 7 7 7 7 7 7 7 7 7 7 7 7 8 8 8 8 9 9 9
14 13 13 12 12 11 11 11 11 10 10 9 9 9 9 9 8 8 8 8 7 7 7 7 7 7 7 7 7 7 7 7 7 7 7 7 7 8 8 8 8 9 9
13 13 12 12 11 11 11 10 10 10 10 10 9 9 9 9 8 8 8 8 7 7 7 7 7 7 7 7 7 7 7 7 7 7 7 7 7 7 8 8 8 9 9
12 12 12 12 11 11 11 10 10 10 9 9 9 9 9 9 8 8 8 8 7 7 7 7 7 7 7 7 7 7 7 7 7 7 7 7 7 7 8 8 8 9 9
12 12 12 12 11 11 11 10 10 10 10 9 9 9 9 9 9 9 8 8 8 7 7 7 7 7 7 7 7 7 7 7 7 7 7 7 7 7 8 8 8 9 9
11 12 11 11 11 11 11 10 10 10 10 9 9 9 9 9 9 9 8 8 8 8 7 7 7 7 7 7 7 7 7 7 7 7 7 7 7 7 8 8 8 9 9
11 11 11 11 11 10 10 10 10 10 9 9 9 9 9 9 9 8 8 8 8 7 7 7 7 7 7 7 7 7 7 7 7 7 7 8 8 8 8 8 8 9 9
10 10 10 10 10 10 9 9 9 9 9 9 9 9 9 8 8 8 8 8 8 7 7 7 7 7 7 7 7 7 7 7 7 7 8 8 8 8 8 8 8 8 9
9 9 10 10 9 9 9 9 9 9 9 9 8 8 8 8 8 8 8 8 8 7 7 7 7 7 7 7 7 7 7 7 7 7 7 8 8 8 8 8 8 9 9
9 9 9 9 9 9 9 9 8 8 8 8 8 8 8 8 8 8 8 7 7 7 7 7 7 7 7 7 7 7 7 7 7 7 7 8 8 8 8 8 9 9 9
8 8 8 8 8 8 8 8 8 8 7 7 7 7 7 8 7 7 7 7 7 7 7 7 7 7 7 7 7 7 7 7 7 7 7 7 8 8 8 8 9 9 9
Wind_Speed
7 7 7 8 8 8 8 9 9 10 10 10 11 11 11 11 11 10 11 11 12 12 12 12 12 12 11 11 10 10 11 11 13 12 9 7 7 8 8 7 7 9 10
7 7 8 8 8 9 10 10 10 10 10 11 11 11 12 12 11 11 12 12 12 13 13 13 13 11 12 12 11 12 12 11 13 14 11 9 8 8 8 7 5 5 6
7 8 8 9 9 9 10 10 10 10 11 11 11 12 12 12 12 12 12 13 13 13 13 13 13 13 13 12 12 13 12 12 12 13 13 10 9 8 7 7 6 4 4
7 8 9 9 9 10 10 10 10 11 11 12 12 12 12 12 13 13 13 13 13 13 13 14 14 14 14 14 13 13 13 13 12 13 13 11 10 8 7 7 6 5 4
8 9 9 9 9 10 10 11 11 11 12 12 12 12 13 12 12 12 12 13 13 14 14 14 14 14 13 13 13 13 12 12 12 12 12 11 11 8 8 6 6 5 5
8 9 9 9 9 10 10 11 11 12 12 12 12 13 13 12 6 5 11 14 14 15 15 14 14 14 15 17 18 18 17 15 14 13 12 12 11 11 8 7 6 6 5
8 9 9 9 10 10 11 11 12 12 12 12 12 13 13 13 9 10 12 13 15 15 15 14 13 13 12 14 16 20 21 22 21 17 16 15 13 11 10 10 8 7 7
8 9 9 9 10 10 11 11 12 12 12 12 12 13 13 13 10 12 11 14 16 16 16 15 15 15 14 13 14 14 15 17 18 19 18 17 16 13 11 11 9 8 6
9 9 9 9 10 10 11 11 11 11 12 12 13 13 14 14 11 12 12 12 13 15 15 15 15 15 11 9 14 15 16 15 15 16 15 15 13 11 9 10 10 8 7
9 9 9 9 10 11 12 12 11 11 12 13 13 13 14 14 11 10 11 11 13 13 13 13 13 15 11 8 13 15 16 15 15 14 16 17 18 17 15 15 13 11 8
8 8 9 9 10 11 11 11 12 12 12 13 14 14 14 14 13 12 12 11 12 12 12 11 10 10 12 12 13 14 15 14 14 14 14 15 15 15 16 17 16 13 11
8 9 9 10 10 10 11 11 12 12 13 13 13 13 12 11 11 10 11 14 13 13 13 12 9 5 9 11 12 14 14 12 13 13 13 13 14 14 14 15 16 16 12
9 9 10 10 10 10 11 12 12 11 11 11 11 12 11 10 8 11 13 14 14 12 12 12 11 8 9 12 17 17 14 13 13 14 14 14 13 13 12 12 14 13 13
9 10 10 10 11 11 10 10 11 11 11 11 11 11 12 11 10 9 7 8 11 12 12 12 14 16 15 14 11 12 13 13 13 14 14 13 12 12 13 12 12 12 11
10 10 11 11 11 10 11 10 11 11 10 11 12 12 12 13 9 7 9 11 10 8 9 10 11 11 11 11 11 11 11 12 13 14 13 13 12 12 13 12 12 12 12
10 11 10 10 9 10 10 11 12 14 13 15 17 16 14 15 16 15 13 13 13 10 8 11 11 11 11 11 10 10 11 11 12 12 12 12 12 13 13 12 12 13 13
13 12 10 10 10 10 10 11 11 10 15 18 19 19 19 18 17 16 15 13 12 9 8 11 12 12 11 11 10 10 10 10 10 11 12 12 12 12 12 12 13 13 13
14 13 12 11 10 10 10 10 11 11 12 11 11 16 18 18 18 16 13 9 10 9 10 11 11 11 11 10 10 9 9 9 9 10 11 11 12 12 12 12 13 14 13
13 12 11 11 11 11 10 10 11 12 11 11 11 9 12 15 17 15 11 9 11 10 9 10 11 11 11 10 9 9 9 9 9 10 10 11 11 11 12 12 13 14 13
13 14 12 11 11 10 10 10 11 11 11 11 10 10 8 8 9 7 8 9 9 9 9 10 10 11 10 10 9 8 9 9 10 10 10 10 10 11 12 13 12 13 13
12 11 12 12 11 11 10 10 10 10 10 10 10 8 6 10 11 10 9 8 8 8 9 9 9 9 9 9 9 10 11 9 9 10 10 10 10 10 11 11 12 12 12
12 12 11 11 10 9 10 10 10 10 10 11 10 9 7 9 9 9 8 8 8 7 8 8 8 8 8 8 8 9 10 10 9 10 10 10 10 11 11 11 11 11 12
12 12 11 10 9 8 9 10 10 10 10 9 9 9 8 8 8 8 8 8 8 8 7 7 8 8 8 7 8 9 9 10 9 9 10 10 11 11 11 12 13 12 12
12 12 11 9 9 9 9 9 8 9 9 8 8 8 8 8 8 8 8 8 8 8 7 6 8 9 10 8 7 8 8 8 9 9 12 11 11 11 11 11 12 13 13
12 11 10 9 8 8 8 8 8 8 7 7 8 8 7 7 7 7 7 8 9 8 8 8 7 7 9 9 7 7 5 5 6 7 9 10 12 12 12 12 11 12 13
11 10 8 7 6 6 6 6 6 7 7 7 7 7 7 7 7 7 7 7 8 8 7 7 8 8 8 7 6 4 3 4 5 7 8 9 10 11 12 11 13 13 14
Wind_Direction
250 254 263 267 271 271 272 275 279 282 285 282 281 282 281 281 277 272 270 274 268 268 267 265 263 268 272 274 269 265 262 262 268 273 270 268 275 286 295 291 268 240 225
254 257 260 265 269 273 277 280 280 279 280 282 282 281 281 281 277 272 271 271 269 267 266 266 265 264 261 264 269 268 266 266 267 273 276 272 266 271 279 284 272 245 229
256 258 262 266 270 274 281 283 282 280 280 282 282 280 281 281 278 274 271 270 268 268 267 265 264 264 263 262 262 264 265 262 259 265 267 266 265 263 270 270 261 238 225
262 264 266 270 276 280 283 283 281 281 281 282 282 281 281 279 276 273 272 270 269 268 266 264 263 262 260 260 259 258 262 266 263 261 263 262 256 252 255 258 250 228 215
262 267 268 272 276 280 282 282 283 282 282 283 282 281 280 278 273 276 279 277 275 273 269 264 260 258 264 265 266 264 260 257 260 258 257 257 253 247 248 249 253 237 218
259 268 272 276 278 280 283 284 284 284 284 283 281 281 280 279 291 285 276 280 278 274 272 269 265 252 244 239 248 258 265 265 264 266 262 259 260 256 250 252 253 242 227
258 266 272 275 278 282 286 288 287 288 286 283 281 280 279 278 265 252 251 269 273 272 271 271 269 266 251 251 240 234 243 247 253 261 266 268 267 259 258 252 242 244 246
259 267 272 275 280 284 286 287 288 288 287 284 283 281 280 276 256 245 247 263 268 268 267 266 266 267 263 259 261 254 248 242 237 238 247 257 262 271 267 261 262 252 251
261 268 273 277 281 283 285 288 289 288 286 284 282 281 280 278 258 240 244 272 268 268 267 265 264 264 259 241 256 260 260 256 247 240 249 256 274 287 282 268 251 239 234
263 269 274 276 277 280 285 288 289 286 283 284 285 284 282 280 270 238 233 267 272 273 270 265 252 247 259 237 252 256 257 256 256 247 232 238 246 246 238 245 250 244 233
261 267 269 271 272 274 280 284 285 284 286 286 286 284 279 275 270 246 230 257 272 278 278 276 271 211 219 228 241 254 259 267 263 257 251 242 236 233 231 225 229 240 236
256 261 265 268 272 277 278 280 282 283 283 282 282 283 280 272 260 252 225 234 260 273 276 276 278 194 215 229 239 248 251 255 256 254 248 242 237 231 226 224 222 226 235
250 258 264 268 269 271 274 279 280 278 279 286 289 289 290 288 272 229 228 233 237 252 270 281 289 273 255 248 240 239 239 240 240 243 243 239 236 234 231 223 221 221 226
246 257 263 266 267 267 270 274 278 282 284 286 287 289 292 291 288 286 273 253 235 245 262 263 243 244 247 257 256 232 232 236 235 238 240 239 235 232 226 222 217 209 210
241 252 261 265 267 271 270 271 275 278 283 285 290 292 293 292 307 342 308 294 295 302 302 283 274 266 254 246 244 240 237 231 230 235 238 236 231 229 225 218 217 213 209
240 248 256 261 264 267 273 274 246 242 253 247 250 261 278 277 287 291 282 273 270 271 271 267 268 266 263 258 251 244 238 234 232 231 231 232 229 225 222 217 214 212 210
239 247 255 261 264 265 269 276 284 266 236 237 241 244 246 263 274 276 275 271 260 238 244 258 263 265 263 260 255 247 240 235 230 230 229 229 228 226 221 216 214 212 209
241 246 246 255 258 263 267 272 277 285 291 287 255 235 235 243 252 258 259 263 256 226 240 253 262 265 265 263 260 250 241 234 228 227 226 225 225 223 220 216 212 211 208
247 249 245 249 254 259 264 268 272 276 280 285 290 276 231 233 236 241 233 249 267 265 256 256 259 261 262 261 258 251 244 237 229 224 224 221 222 221 221 218 214 207 207
254 248 244 248 253 256 259 265 270 275 279 282 286 290 293 288 285 272 243 253 266 272 271 267 266 262 258 257 254 248 243 238 233 227 223 219 219 221 221 220 216 207 203
268 254 222 237 249 256 261 266 272 276 281 284 287 291 298 293 290 292 290 284 280 280 277 273 271 267 260 253 248 245 242 238 231 224 219 215 214 217 222 221 216 210 202
275 266 252 244 246 250 259 266 271 274 277 282 287 283 245 271 287 293 294 293 290 283 277 275 274 270 264 258 248 244 243 239 232 226 220 213 212 216 216 214 211 206 200
277 270 260 252 251 248 252 261 267 273 277 283 287 292 293 296 302 303 301 300 298 294 287 283 281 276 269 260 250 243 241 237 233 228 222 216 212 212 213 209 205 200 197
287 274 265 259 254 256 259 264 269 273 280 288 292 293 295 300 305 310 309 306 303 301 296 288 285 282 278 269 257 247 243 242 239 234 229 223 215 210 207 205 202 199 195
289 276 265 257 253 257 264 270 276 282 289 294 296 298 302 309 314 320 321 317 315 311 307 299 289 286 285 276 264 257 249 246 248 252 235 226 219 212 206 201 197 196 190
291 277 263 256 255 261 269 277 283 289 294 300 304 306 310 317 320 327 327 324 323 317 311 303 296 296 294 282 276 268 246 237 239 252 248 229 221 214 207 201 196 193 188
Height
1526 1525 1524 1523 1522 1521 1519 1518 1516 1514 1512 1510 1508 1506 1505 1503 1502 1500 1499 1498 1496 1495 1494 1494 1492 1491 1491 1491 1490 1490 1489 1488 1486 1485 1485 1484 1483 1482 1482 1482 1482 1482 1484
1523 1521 1520 1519 1518 1517 1516 1514 1512 1509 1507 1506 1504 1502 1500 1498 1497 1495 1493 1493 1491 1490 1489 1489 1488 1487 1486 1485 1485 1484 1484 1483 1482 1480 1480 1480 1479 1478 1477 1477 1478 1478 1479
1519 1518 1516 1515 1514 1513 1511 1509 1507 1505 1503 1501 1499 1497 1495 1493 1491 1490 1488 1487 1486 1485 1484 1483 1482 1481 1480 1480 1479 1479 1479 1478 1477 1476 1475 1475 1475 1474 1474 1473 1473 1474 1474
1515 1514 1513 1511 1510 1508 1506 1504 1502 1500 1498 1496 1494 1491 1489 1487 1486 1484 1483 1482 1480 1479 1478 1477 1476 1475 1475 1474 1474 1473 1473 1473 1472 1472 1471 1470 1470 1470 1469 1469 1469 1470 1470
1511 1510 1509 1508 1506 1504 1502 1499 1497 1495 1493 1491 1488 1486 1484 1482 1481 1480 1478 1476 1475 1473 1472 1471 1470 1469 1468 1468 1468 1468 1468 1468 1467 1467 1466 1466 1466 1465 1465 1465 1465 1465 1466
1507 1506 1505 1503 1501 1499 1497 1495 1492 1490 1487 1485 1483 1480 1478 1477 1475 1473 1471 1470 1468 1467 1465 1464 1463 1462 1460 1460 1459 1460 1461 1461 1462 1462 1461 1461 1461 1461 1461 1461 1461 1461 1462
1502 1501 1500 1499 1497 1495 1493 1490 1488 1485 1482 1480 1477 1475 1472 1471 1469 1467 1465 1463 1462 1460 1459 1458 1457 1457 1455 1454 1453 1452 1452 1452 1454 1455 1455 1456 1456 1457 1457 1457 1457 1457 1458
1498 1497 1496 1494 1492 1490 1488 1485 1483 1480 1477 1474 1472 1469 1467 1465 1463 1461 1459 1457 1455 1453 1452 1451 1450 1449 1449 1448 1447 1447 1446 1446 1446 1447 1447 1448 1451 1451 1452 1452 1453 1453 1454
1494 1493 1492 1490 1488 1485 1483 1480 1477 1474 1471 1469 1466 1464 1461 1458 1457 1455 1453 1450 1449 1447 1446 1444 1443 1442 1441 1440 1440 1440 1439 1440 1440 1440 1440 1441 1442 1444 1446 1447 1449 1449 1449
1490 1489 1487 1485 1482 1480 1478 1475 1472 1469 1466 1463 1461 1458 1455 1452 1451 1448 1446 1444 1443 1441 1439 1437 1436 1434 1434 1433 1433 1433 1432 1432 1433 1434 1433 1433 1434 1436 1438 1440 1443 1445 1445
1484 1483 1481 1479 1477 1475 1472 1469 1467 1464 1461 1457 1454 1451 1448 1446 1444 1442 1440 1438 1437 1435 1433 1431 1430 1428 1427 1426 1425 1425 1425 1426 1426 1426 1427 1427 1428 1429 1431 1433 1436 1439 1440
1479 1477 1475 1474 1472 1470 1467 1464 1461 1458 1455 1452 1448 1445 1443 1441 1438 1436 1434 1432 1430 1428 1426 1425 1424 1422 1420 1419 1418 1417 1417 1418 1418 1419 1420 1420 1421 1423 1425 1427 1430 1432 1435
1473 1472 1470 1468 1466 1464 1462 1459 1456 1454 1450 1447 1444 1441 1438 1436 1433 1430 1428 1426 1423 1421 1419 1418 1416 1415 1413 1411 1410 1410 1410 1410 1410 1411 1412 1413 1414 1416 1419 1421 1423 1426 1428
1467 1466 1465 1463 1461 1459 1456 1454 1451 1449 1446 1442 1439 1436 1433 1430 1428 1425 1423 1420 1417 1415 1413 1411 1409 1407 1405 1404 1403 1402 1402 1402 1403 1404 1405 1406 1408 1410 1412 1414 1417 1419 1423
1461 1460 1459 1457 1455 1452 1450 1447 1445 1442 1440 1436 1434 1431 1428 1425 1422 1419 1417 1414 1412 1410 1407 1405 1403 1401 1399 1397 1396 1396 1395 1395 1395 1396 1398 1399 1401 1403 1405 1408 1411 1414 1417
1454 1453 1453 1451 1449 1447 1444 1442 1438 1435 1432 1429 1426 1424 1420 1418 1415 1412 1410 1407 1405 1403 1400 1398 1396 1394 1393 1391 1390 1389 1388 1388 1389 1389 1391 1393 1395 1397 1399 1402 1404 1408 1410
1447 1446 1445 1444 1443 1441 1438 1436 1433 1430 1426 1423 1420 1417 1414 1411 1409 1406 1403 1400 1398 1396 1394 1392 1390 1388 1386 1385 1384 1383 1382 1382 1382 1383 1384 1386 1388 1391 1393 1395 1398 1401 1404
1439 1439 1437 1436 1435 1433 1432 1429 1427 1424 1421 1417 1415 1411 1408 1406 1403 1400 1397 1394 1392 1389 1387 1385 1384 1382 1380 1379 1378 1377 1376 1376 1376 1377 1378 1380 1382 1384 1387 1389 1392 1395 1399
1432 1431 1430 1429 1428 1426 1425 1423 1420 1417 1414 1411 1409 1406 1403 1400 1397 1394 1391 1388 1386 1384 1381 1379 1377 1376 1374 1372 1371 1370 1370 1370 1370 1371 1372 1374 1376 1379 1381 1384 1387 1390 1393
1424 1423 1422 1421 1420 1419 1418 1416 1414 1412 1409 1406 1403 1401 1399 1396 1393 1390 1386 1383 1381 1378 1375 1373 1371 1369 1368 1366 1365 1365 1364 1364 1365 1366 1367 1369 1371 1373 1376 1379 1382 1384 1388
1418 1416 1414 1413 1413 1412 1411 1410 1408 1405 1403 1400 1398 1396 1393 1390 1388 1385 1382 1378 1375 1373 1370 1367 1365 1363 1361 1360 1360 1359 1359 1359 1360 1361 1363 1364 1366 1368 1371 1374 1377 1380 1383
1411 1409 1408 1406 1406 1405 1404 1403 1401 1399 1397 1395 1392 1390 1388 1385 1382 1379 1376 1373 1370 1367 1364 1362 1359 1357 1356 1355 1354 1354 1354 1354 1355 1357 1358 1360 1361 1364 1367 1369 1372 1375 1379
1404 1402 1401 1400 1399 1398 1397 1396 1395 1393 1391 1389 1387 1385 1383 1381 1378 1375 1371 1368 1365 1362 1359 1357 1354 1352 1350 1349 1349 1348 1349 1350 1351 1352 1354 1355 1357 1359 1362 1364 1368 1371 1374
1398 1396 1394 1393 1393 1392 1391 1390 1389 1388 1386 1384 1382 1380 1378 1376 1373 1370 1367 1363 1360 1357 1354 1352 1349 1347 1345 1344 1343 1343 1344 1345 1346 1348 1349 1351 1353 1355 1358 1360 1363 1367 1370
1391 1389 1388 1387 1386 1386 1386 1385 1384 1383 1381 1380 1378 1376 1374 1372 1369 1366 1363 1359 1356 1353 1350 1348 1345 1343 1341 1339 1338 1338 1338 1339 1341 1343 1344 1346 1349 1351 1354 1357 1360 1363 1367
1385 1382 1381 1381 1381 1380 1380 1380 1379 1378 1377 1375 1374 1372 1370 1368 1366 1363 1360 1356 1353 1350 1347 1344 1341 1339 1337 1335 1334 1333 1334 1334 1336 1338 1339 1342 1345 1347 1350 1354 1357 1360 1363